Regional Weather Roundup
Issued by NWS Newport/Morehead, NC

Home | Current Version | Previous Version | Text Only | Print | Product List | Glossary On
Versions: 1 2 3 4 5 6 7 8 9 10 11 12 13 14 15 16 17 18 19 20 21 22 23 24 25 26 27 28 29 30 31 32 33 34 35 36 37 38 39 40 41 42 43 44 45 46 47 48 49 50
000
ASUS42 KMHX 181325
RWRMHX
WEATHER ROUNDUP FOR EASTERN NORTH CAROLINA
NATIONAL WEATHER SERVICE NEWPORT/MOREHEAD CITY NC
800 AM EST MON DEC 18 2017

NOTE: "FAIR" INDICATES FEW OR NO CLOUDS BELOW 12,000 FEET
WITH NO SIGNIFICANT WEATHER AND/OR OBSTRUCTIONS TO VISIBILITY

NCZ015>017-031-032-045>047-102-103-181400-
NORTH COAST

CITY           SKY/WX    TMP DP  RH WIND       PRES   REMARKS
EDENTON        CLOUDY    43  41  92 SW3       30.19R
ELIZABETH CITY PTCLDY    42  41  96 SW5       30.17S
KITTY HAWK     CLOUDY    44  42  92 CALM      30.16S
MANTEO         CLOUDY    43  42  95 CALM      30.18S

$$

NCZ045>047-081-094-103-104-181400-
CENTRAL COAST

CITY           SKY/WX    TMP DP  RH WIND       PRES   REMARKS
FRISCO         CLOUDY    51  47  86 NW5       30.18R

$$

NCZ095-097-098-100-101-181400-
SOUTHERN COAST

CITY           SKY/WX    TMP DP  RH WIND       PRES   REMARKS
BEAUFORT       CLOUDY    54  50  86 CALM      30.19R
CEDAR ISLAND   NOT AVBL
JACKSONVILLE   CLOUDY    48  47  96 CALM      30.17F
PINEY ISLAND     N/A    N/A N/A N/A CALM      30.18R
WILMINGTON     PTCLDY    48  46  93 CALM      30.18R


$$

NCZ011>013-027>030-043-044-078>080-089-090>093-098-181400-
COASTAL PLAIN

CITY           SKY/WX    TMP DP  RH WIND       PRES   REMARKS
AHOSKIE        PTCLDY    36  36 100 CALM      30.18R
CLINTON        CLOUDY    51  46  85 CALM      30.19R
ELIZABETHTOWN  NOT AVBL
GOLDSBORO      CLOUDY    50  43  76 CALM      30.16S
GREENVILLE     CLOUDY    41  41 100 CALM      30.19S
HAVELOCK       PTCLDY    52  48  86 CALM      30.19S
KENANSVILLE    CLOUDY    48  46  93 CALM      30.18R
KINSTON        CLOUDY    50  45  81 CALM      30.18F
NEW BERN       CLOUDY    50  48  93 CALM      30.19S
RICHLANDS      CLOUDY    52  48  87 S3        30.19R
ROCKY MOUNT    CLOUDY    37  37 100 CALM      30.18S FOG
WASHINGTON     CLOUDY    42  41  97 CALM      30.18F FOG
WHITEVILLE     PTCLDY    47  46  95 CALM      30.17R

$$

AMZ130-135-150-152-154-156-158-170-250-252-270-ANZ085-086-088-633-658-670-181400-
MARINE OBSERVATIONS

STATION/POSITION TIME  TEMP    WIND        PRES    WAVE   SWELL
                       AIR SEA DIR/SP/G            HT/PER HT/PER
                 (UTC) (F)     (DEG/KT/KT) (MB)    (FT/S) (FT/S)
CHESAPEAKE LIGHT NOT AVBL
64 E VA BEACH    1250   53 58  270/ 12/ 14 1021.4    3/ 4   2/10
DUCK             1300   47 52  240/  5/  8 1021.0
2 E DUCK         1300      54                N/A     1/10
OREGON INLET     1300   46 46  230/  4/  5 1021.7
13E OREGON INLT  1248      53                N/A     1/10   2/10
HATTERAS CG      1300   51 51  290/  5/  6 1021.9
DIAMOND BUOY     1300   61 72  280/ 12/ 14 1022.3
CAPE LOOKOUT     1300          280/  1/  2 1022.4
BEAUFORT LAB     1300   53 51  190/  2/  2 1022.1
30 SE NEW RVR IN 1208   60 63  350/  4/  6 1021.8
30 SE NEW RVR IN 1300      63                N/A     1/ 9
27 SE WRIGHTSVLE 1208   57 58   CALM  /  2 1021.5
5 SE WRIGHTSVLE  1308   56 56   CALM  /  2 1021.4
225 S CAPE HAT   1250   72 74  220/ 16/ 19 1022.8    3/10   2/10
41 SE CHARLESTON 1300   70 73  240/ 14/ 16 1022.0

$$



USA.gov is the U.S. government's official web portal to all federal, state and local government web resources and services.